GFSFLT2_925_rhum_039.txt.gz
RH
99 100 99 96 100 100 99 98 99 96 99 100 90 80 81 82 82 82 79 78 79 79 77 75 72 70 74
100 99 100 100 99 99 98 99 100 97 72 83 83 85 78 73 73 75 78 80 82 81 78 76 73 73 69
100 99 100 99 100 100 99 98 78 62 80 86 70 67 71 72 74 74 78 79 79 80 80 76 78 77 75
98 99 100 100 99 91 79 72 65 65 65 62 72 70 71 73 76 78 76 76 76 76 76 77 78 78 78
99 99 98 94 86 78 79 70 67 68 63 56 56 55 54 58 59 62 74 80 79 78 77 77 77 74 76
98 96 84 80 71 68 73 72 73 64 67 68 58 58 55 59 59 80 77 76 78 78 78 78 78 74 76
86 87 76 72 73 73 73 76 77 74 79 74 59 61 58 58 57 69 80 80 82 84 84 81 79 78 78
77 79 80 80 82 84 85 86 84 74 69 80 71 65 58 56 55 62 77 81 78 80 84 87 86 82 80
80 76 74 78 82 85 83 81 80 73 72 84 80 78 69 56 56 56 64 69 73 86 91 89 89 88 85
65 61 64 57 56 61 58 61 67 80 81 77 84 92 88 75 69 69 70 71 79 83 90 94 95 94 89
62 58 48 50 57 63 66 72 78 79 78 90 99 94 95 89 85 85 81 76 80 79 78 85 88 97 94
54 55 67 74 76 78 78 78 80 84 87 96 98 93 94 92 90 86 85 86 85 82 79 73 79 85 93
64 69 74 78 80 82 83 84 86 86 90 93 94 96 97 95 94 95 96 85 87 84 80 86 82 81 89
78 86 87 91 94 97 96 92 91 92 91 95 97 99 96 97 100 99 97 98 92 96 94 90 94 95 94
92 95 99 97 91 92 91 91 100 97 95 95 92 94 95 97 98 97 97 95 97 98 99 98 96 96 95
97 99 93 92 96 93 98 99 100 99 100 97 98 97 95 92 97 100 100 99 94 95 97 99 94 92 91
92 93 95 96 97 97 99 100 99 100 99 95 96 99 94 92 76 75 78 82 86 92 92 94 96 93 91

GFSFLT2_925_rhum_042.txt.gz
RH
94 98 98 98 100 97 98 98 98 100 98 100 98 100 100 96 86 82 80 80 78 77 76 76 76 74 71
99 99 100 100 100 100 100 99 100 99 99 99 99 97 85 85 80 77 76 77 78 80 79 77 76 74 74
100 99 100 100 100 100 99 100 100 100 98 92 89 87 75 74 75 76 77 78 79 81 81 79 78 75 75
100 100 100 100 100 99 99 98 87 74 66 77 73 69 78 75 75 78 81 82 80 79 80 80 79 78 78
98 99 100 99 98 92 88 78 71 67 65 65 59 49 45 49 54 58 74 79 83 84 82 80 79 76 78
100 98 92 86 82 76 73 74 73 67 66 63 52 45 45 53 55 56 84 86 83 82 83 82 82 80 78
88 88 80 73 74 74 76 78 79 73 78 75 49 51 53 57 57 66 84 85 85 86 88 86 84 86 88
75 77 80 79 81 83 85 87 85 73 71 86 65 62 59 55 56 58 86 87 86 85 89 91 92 90 88
83 82 79 78 82 86 88 87 82 72 69 77 82 78 65 62 64 64 88 76 64 72 90 92 94 95 92
72 67 62 62 57 69 64 60 67 74 83 82 84 86 90 72 72 67 63 63 64 72 92 92 95 96 93
60 56 51 51 59 69 73 75 79 76 77 89 98 94 93 86 82 76 73 71 77 72 72 73 86 96 95
56 59 71 75 75 77 78 79 81 84 84 89 93 93 92 94 91 86 88 91 87 78 77 75 75 92 94
70 75 81 84 85 87 88 90 90 88 85 87 96 95 100 97 94 92 95 91 89 91 81 87 86 84 83
84 90 92 95 96 97 97 91 92 85 84 86 90 96 98 95 98 95 94 97 89 97 100 97 92 91 98
94 95 97 97 95 90 91 92 100 99 94 88 85 88 92 95 100 98 96 96 97 96 96 98 99 98 93
97 98 97 96 94 97 100 100 100 99 96 89 89 98 97 94 98 100 100 100 98 91 94 100 96 93 88
96 93 93 96 100 96 100 100 100 100 96 93 92 100 95 94 75 74 86 89 92 92 92 96 98 92 87

GFSFLT2_925_rhum_045.txt.gz
RH
100 98 99 98 100 100 100 100 100 100 98 99 100 100 98 99 100 98 100 98 89 83 79 76 76 76 75
99 100 100 100 100 100 100 100 100 100 99 98 97 98 99 100 98 92 89 83 79 78 78 79 78 78 76
100 99 99 100 100 100 100 100 100 100 100 99 98 99 92 89 83 79 79 79 80 81 81 82 80 79 77
100 100 100 100 100 99 99 100 97 89 72 85 81 79 81 81 84 82 80 81 83 84 82 82 82 81 79
98 98 99 99 99 99 98 90 77 71 67 66 63 63 58 49 41 42 70 80 82 83 84 83 82 80 78
98 96 90 86 84 80 76 74 73 67 66 58 56 51 36 40 45 50 62 84 88 88 86 85 82 79 80
88 87 82 77 76 75 76 77 78 74 81 72 51 48 49 53 56 61 86 88 89 88 89 88 85 85 84
77 77 78 79 81 84 86 88 86 74 71 90 66 60 59 56 54 53 63 87 89 90 88 92 92 93 92
84 82 86 84 86 86 83 89 83 68 68 76 79 78 66 66 72 86 96 94 93 86 90 94 94 95 93
65 62 60 57 59 61 70 66 64 70 78 87 86 85 80 70 70 71 75 69 61 59 76 90 94 94 92
56 51 51 54 62 74 77 78 80 77 77 87 96 94 91 84 80 70 62 59 61 60 62 65 70 97 96
55 60 66 70 74 76 79 82 85 86 83 86 94 92 92 93 90 83 82 76 78 71 72 70 71 82 96
78 78 82 88 89 91 90 93 93 88 85 84 88 92 100 97 95 89 91 89 90 89 83 77 74 77 78
87 92 92 96 100 97 93 95 93 83 80 82 85 91 98 100 100 96 93 96 80 87 94 92 87 79 78
93 94 95 96 98 91 88 95 100 99 88 83 83 88 91 94 100 100 100 100 98 93 96 100 89 88 88
89 95 95 97 96 93 97 99 100 99 96 84 88 96 95 84 90 100 100 100 100 99 96 100 100 84 89
80 82 82 88 95 91 88 91 98 95 90 91 92 100 95 94 78 76 90 91 91 93 93 100 99 88 90

GFSFLT2_925_rhum_048.txt.gz
RH
100 97 96 98 100 100 99 100 100 99 100 100 99 99 99 98 98 100 98 98 100 100 100 99 95 90 79
99 97 99 98 100 100 98 98 98 98 98 98 98 98 100 100 98 98 99 100 99 94 84 78 78 79 77
99 99 99 99 99 100 99 98 99 99 99 99 100 100 99 99 100 100 96 90 84 84 81 82 82 81 79
100 99 99 100 99 100 100 100 98 97 94 96 94 89 92 91 89 86 84 84 83 82 83 82 82 82 81
96 96 99 97 99 98 97 87 75 71 67 66 66 68 65 60 56 49 39 57 74 79 82 84 84 83 82
93 89 84 82 79 77 77 74 73 70 68 60 56 47 43 42 36 40 54 81 84 86 88 88 84 83 81
85 84 82 80 78 77 78 79 79 75 79 68 53 50 52 52 54 56 74 88 89 90 90 89 84 86 84
80 81 81 83 85 86 87 90 87 71 68 83 63 58 56 54 54 54 52 70 89 91 91 88 90 92 92
82 81 84 85 84 86 87 83 83 71 68 76 76 76 62 62 65 83 99 96 94 97 97 94 95 94 93
59 48 47 50 54 57 60 70 67 69 76 83 83 82 76 70 67 66 66 87 87 81 62 70 93 95 83
47 49 55 65 71 77 80 85 86 80 78 91 97 96 92 83 78 73 72 66 64 63 63 63 63 94 95
55 63 71 75 75 78 80 83 85 86 85 88 96 96 94 95 92 80 80 76 72 65 67 74 73 73 97
80 81 86 89 92 94 90 90 92 91 87 86 88 88 97 100 97 97 97 83 83 79 72 70 70 68 71
89 90 90 94 100 100 88 84 88 75 71 74 84 88 91 97 100 100 100 100 83 86 88 91 83 77 75
86 89 91 94 98 99 92 90 100 100 80 63 71 84 90 93 100 99 94 96 87 87 99 100 100 83 76
86 95 94 93 96 89 86 95 96 87 77 64 76 92 91 76 79 80 91 95 92 94 96 100 100 74 78
72 70 70 71 81 86 79 81 80 77 73 79 92 100 96 95 78 82 89 85 84 97 91 91 95 82 86

GFSFLT2_925_rhum_051.txt.gz
RH
99 94 91 93 96 96 98 100 100 100 100 97 86 89 91 89 92 93 92 99 97 99 99 100 99 99 97
100 95 96 95 98 96 98 98 98 98 96 94 97 98 97 96 96 96 97 97 98 100 100 100 97 89 82
99 99 96 94 96 96 98 98 96 94 95 93 98 98 99 98 98 98 98 100 98 98 97 92 84 82 82
99 97 97 96 98 98 97 88 87 88 88 92 95 92 94 95 95 94 93 92 91 90 86 84 83 82 80
98 96 94 91 94 92 90 80 74 67 64 63 62 64 67 70 66 62 61 58 55 70 74 78 81 83 83
91 80 81 80 80 81 80 73 65 68 74 64 53 52 43 36 33 34 28 28 53 76 83 87 86 84 86
80 82 79 78 75 78 82 84 76 79 82 65 54 60 50 51 51 52 70 88 89 88 90 89 85 84 84
82 84 84 89 88 88 88 86 75 80 67 73 72 66 59 55 54 55 66 73 89 92 92 90 90 85 89
78 77 80 82 84 83 91 86 68 65 71 80 75 78 76 74 65 80 80 84 95 94 92 92 93 95 94
54 44 43 46 50 54 59 78 75 70 73 89 84 85 76 70 64 63 62 61 75 96 100 99 99 95 91
44 49 57 65 70 73 76 81 84 88 80 92 96 92 91 85 80 77 80 70 68 66 65 72 76 85 89
58 68 72 74 77 78 81 86 87 88 86 90 98 97 98 92 85 80 80 86 88 82 76 71 69 83 98
78 80 84 86 88 88 88 86 77 76 79 83 86 90 98 100 94 94 98 86 94 97 90 80 82 83 87
83 82 84 91 99 100 97 96 96 77 68 71 73 83 95 100 100 100 97 98 88 92 98 100 99 97 98
83 90 88 89 90 95 90 98 97 89 86 89 64 66 74 81 100 98 95 91 92 97 100 100 99 98 92
68 69 78 86 87 78 77 93 92 84 82 83 92 98 96 80 74 76 91 94 93 98 100 100 98 88 91
59 61 64 64 68 82 88 94 89 85 84 93 100 100 91 90 77 92 98 97 96 94 94 96 97 88 89

GFSFLT2_925_rhum_054.txt.gz
RH
96 91 91 96 98 99 98 96 97 99 100 100 96 94 93 92 97 94 92 87 84 96 100 99 97 98 100
99 100 96 98 95 98 99 96 99 94 100 97 95 94 92 92 92 90 87 89 91 98 97 94 98 99 98
98 99 100 89 93 95 92 85 83 84 88 90 86 85 90 94 93 98 98 97 99 95 96 97 99 93 87
99 98 100 99 98 96 82 86 82 77 74 72 74 78 84 94 97 93 95 95 97 94 94 93 91 87 83
91 87 83 76 76 75 68 62 60 69 61 56 59 59 61 63 64 66 72 79 82 82 82 78 75 79 80
88 70 68 64 62 64 64 60 55 71 62 49 51 50 48 50 53 36 32 37 48 65 68 71 82 84 83
59 57 57 65 81 83 76 69 58 58 68 51 52 48 52 54 54 47 49 80 88 88 87 89 89 88 82
75 76 79 82 83 83 79 74 62 57 68 60 54 56 57 61 67 54 52 72 84 91 93 92 91 87 84
72 70 70 72 76 76 80 69 58 46 60 68 60 63 60 62 66 60 63 61 68 84 96 91 88 89 88
58 50 47 54 44 65 70 80 68 70 67 77 75 76 78 61 64 67 70 73 70 62 83 96 91 92 94
47 50 61 69 72 80 83 92 91 85 78 89 98 88 84 83 76 69 70 72 75 77 79 88 94 98 91
51 54 63 76 88 92 90 91 95 88 84 96 100 100 94 93 81 72 71 77 82 88 91 94 93 88 93
60 74 84 94 80 92 97 94 81 85 78 78 93 100 100 98 88 87 89 82 87 92 99 99 97 94 95
71 74 78 96 95 92 98 92 90 85 88 73 81 92 97 93 94 97 96 94 88 91 92 96 96 94 95
74 72 71 73 81 84 89 90 86 78 76 80 90 96 95 98 99 93 89 86 87 92 98 98 94 94 94
77 80 77 78 80 82 86 86 82 75 72 74 82 90 93 89 93 93 91 87 88 93 99 98 97 95 91
80 83 87 88 85 79 77 79 78 76 74 83 96 99 90 90 74 84 95 92 93 91 90 92 93 90 90

GFSFLT2_925_rhum_057.txt.gz
RH
96 91 93 92 94 91 99 100 100 97 99 99 97 93 94 95 95 93 90 90 94 98 91 88 90 95 96
99 98 98 99 97 97 97 100 99 99 94 97 94 91 91 91 88 88 89 90 88 96 99 96 94 92 98
99 94 98 91 86 99 92 81 88 81 82 89 86 83 83 90 99 100 92 91 93 91 93 91 91 95 95
91 95 97 98 94 91 79 74 68 70 67 62 64 62 65 76 92 92 90 92 94 93 94 91 91 94 93
92 88 84 76 73 72 64 59 56 58 57 53 49 54 54 56 59 59 62 79 86 88 90 92 89 84 80
88 76 66 62 56 63 66 70 65 60 58 48 47 49 44 47 48 43 33 29 36 55 69 72 71 73 79
60 54 57 67 76 77 78 71 66 62 59 55 48 52 51 55 61 56 48 48 76 90 88 88 88 88 87
74 74 77 79 80 77 78 77 67 55 54 60 54 58 58 59 62 60 58 61 64 73 87 95 93 91 89
55 55 54 54 59 66 82 73 72 44 55 69 67 66 64 63 63 59 56 69 62 60 73 97 94 90 85
58 50 47 54 39 50 66 85 79 77 68 74 85 80 89 67 64 66 67 71 74 77 66 76 92 96 88
50 45 54 64 68 74 72 82 95 88 86 82 95 91 85 85 81 72 70 71 74 76 81 85 88 93 93
46 47 50 62 80 85 86 79 91 86 79 92 99 97 96 92 88 74 75 74 73 80 88 88 94 96 94
52 58 72 86 87 75 93 97 81 75 75 73 80 100 99 99 96 96 92 82 78 79 82 83 92 93 94
62 67 72 81 92 94 94 94 94 89 84 82 68 94 100 99 98 97 94 94 82 86 86 86 96 96 90
68 71 70 68 74 82 86 90 92 89 83 79 80 81 79 92 100 99 95 95 91 89 93 94 98 100 93
73 78 78 75 78 81 83 86 90 88 82 78 77 82 89 91 96 93 97 98 92 91 92 95 97 98 91
73 78 82 86 88 85 82 80 82 82 82 80 83 91 91 90 83 82 88 94 93 95 91 94 98 93 94

GFSFLT2_925_rhum_063.txt.gz
RH
100 99 99 98 91 85 85 88 95 99 96 81 85 86 86 85 89 93 96 98 99 100 96 95 91 91 93
100 99 100 93 87 81 83 80 78 82 81 77 76 78 79 80 82 84 85 88 88 91 98 96 99 96 97
99 96 92 92 84 79 87 72 74 71 63 62 57 62 66 74 85 84 86 88 87 90 91 91 89 92 96
89 85 87 88 85 80 66 61 62 61 50 50 53 47 47 51 52 70 86 89 90 91 91 88 88 92 94
84 86 81 83 72 66 60 53 61 57 50 39 35 42 41 49 50 46 45 48 64 84 86 84 85 87 95
82 80 77 66 65 63 64 68 68 63 47 44 48 45 50 52 53 54 50 39 32 30 38 54 68 78 79
80 67 62 64 64 63 67 72 67 55 62 37 54 52 55 58 59 61 56 49 47 57 71 88 93 90 89
63 66 69 69 73 72 72 73 69 65 54 50 54 57 54 57 61 61 54 60 67 69 79 81 96 97 95
52 53 50 51 52 57 66 76 69 65 65 65 66 62 66 67 63 66 68 74 80 81 85 85 82 95 97
57 51 41 39 44 37 55 71 79 82 77 80 74 67 66 71 68 68 63 68 67 75 83 84 89 88 79
52 43 42 49 56 58 56 54 61 80 90 83 81 77 83 82 66 64 68 65 58 58 60 62 76 97 96
50 43 44 49 58 64 72 71 68 67 75 81 81 79 79 86 85 69 62 51 48 49 60 64 69 72 86
47 45 51 57 64 78 84 80 76 80 75 77 82 87 92 87 87 91 97 63 57 75 53 65 71 73 76
50 51 62 73 76 69 74 86 88 71 73 77 81 85 89 89 88 98 94 90 57 68 78 77 71 73 81
54 56 63 69 68 70 72 80 89 85 79 60 71 80 85 92 100 97 87 89 84 84 89 90 82 76 86
48 54 63 71 73 71 73 78 83 83 82 70 84 85 82 73 72 78 89 89 82 84 89 98 88 73 74
45 49 56 65 70 76 77 81 83 79 67 75 85 90 100 96 80 85 85 82 86 90 96 100 96 85 79

GFSFLT2_925_rhum_066.txt.gz
RH
99 100 99 98 89 86 85 85 88 94 100 95 84 85 84 82 86 91 93 96 98 99 99 98 96 96 93
100 100 98 91 88 84 84 83 78 83 87 79 74 74 78 85 80 78 81 77 77 84 88 88 91 91 93
100 98 94 91 83 83 85 78 75 69 59 59 58 62 66 76 79 82 85 92 93 87 86 86 87 90 93
98 93 90 90 85 79 71 64 63 62 52 47 51 44 42 51 50 59 79 87 88 91 91 89 87 87 88
90 90 87 89 84 72 63 54 52 56 49 38 34 39 37 44 45 39 35 37 51 79 84 88 88 87 87
84 83 81 80 72 65 62 59 56 64 48 44 48 46 47 50 53 55 53 48 39 28 29 40 57 72 76
85 84 79 68 64 62 61 66 61 58 60 39 53 52 55 56 56 61 55 52 51 57 68 76 90 96 93
66 62 63 63 64 61 64 64 67 64 55 50 50 54 54 57 68 62 61 68 77 70 70 71 70 87 96
60 64 62 58 56 62 68 65 65 61 63 64 62 59 66 67 68 71 69 75 85 85 83 91 92 88 81
59 58 44 49 44 35 39 62 69 76 72 74 71 65 60 70 69 68 65 68 66 68 70 66 68 75 73
58 50 41 44 48 43 45 48 54 66 83 77 80 75 69 69 56 60 66 66 55 48 52 59 65 84 86
60 45 43 48 52 56 63 70 68 66 72 77 74 74 73 74 72 63 63 52 46 45 47 63 59 61 65
50 44 43 49 56 65 77 84 76 74 72 71 73 83 90 90 76 77 87 57 60 75 58 59 68 68 67
47 44 49 58 68 78 70 75 83 74 76 84 80 82 84 88 93 92 88 88 55 58 74 76 74 74 75
47 49 57 68 74 72 71 76 84 82 80 81 72 70 77 82 94 79 73 79 68 79 88 86 74 70 67
47 50 53 60 67 70 71 72 78 81 83 79 67 72 70 56 52 64 77 78 78 82 87 98 84 68 68
42 44 48 54 65 74 76 80 81 81 82 77 74 87 100 98 72 77 88 87 88 83 85 92 94 81 78

GFSFLT2_925_rhum_069.txt.gz
RH
100 100 100 97 91 84 84 89 90 95 99 99 90 84 83 83 85 93 91 89 99 99 100 100 99 97 99
100 100 100 99 89 85 83 84 83 83 85 80 79 83 97 92 79 75 82 80 80 85 89 93 97 96 98
100 100 100 94 87 85 86 82 77 73 61 58 58 68 77 91 80 80 80 79 80 73 76 82 86 91 94
99 98 94 92 86 81 87 70 68 65 56 48 48 43 44 63 49 50 69 85 87 89 88 84 82 82 84
95 94 93 93 88 84 72 64 53 52 48 41 35 35 36 42 42 35 32 33 41 68 80 85 87 87 87
90 86 85 83 82 73 64 57 54 60 48 41 45 42 43 45 51 54 54 48 37 30 30 36 49 64 71
84 83 82 80 76 70 62 58 56 58 54 41 50 49 52 51 54 61 55 57 53 54 60 57 60 69 79
82 84 76 68 64 60 57 58 63 61 53 47 49 53 52 55 78 63 64 72 80 72 72 67 68 79 93
56 60 62 63 63 63 64 71 65 62 60 61 58 56 64 68 73 72 67 72 88 87 86 94 90 83 68
56 49 43 49 71 44 45 56 64 70 65 71 67 61 61 69 68 66 66 65 66 65 64 61 63 66 68
58 56 48 40 46 43 46 51 53 59 78 72 74 66 61 61 62 61 61 63 61 50 46 51 60 86 75
61 50 42 41 49 54 56 64 62 59 62 73 67 66 65 65 60 59 64 62 50 44 47 50 60 55 59
58 50 42 42 48 56 61 74 76 68 68 71 74 74 80 79 67 67 70 54 52 49 65 55 56 62 64
52 46 44 48 56 61 76 70 74 78 75 82 86 80 79 83 89 85 81 84 58 59 58 64 70 68 71
59 49 45 53 63 73 77 72 82 76 77 81 84 71 63 75 89 72 65 66 57 67 80 74 66 63 60
54 52 49 54 60 71 72 73 74 73 76 79 81 67 61 43 41 50 65 70 70 83 90 91 74 68 63
45 44 46 49 56 65 72 75 77 78 76 79 82 74 98 96 50 63 81 80 87 86 83 85 84 72 72